TimeCDT,TemperatureF,Dew PointF,Humidity,Sea Level PressureIn,VisibilityMPH,Wind Direction,Wind SpeedMPH,Gust SpeedMPH,PrecipitationIn,Events,Conditions,WindDirDegrees,DateUTC
12:53 AM,51.1,30.0,44,30.01,10.0,Calm,Calm,-,N/A,,Clear,0,2013-05-04 05:53:00
1:53 AM,48.9,32.0,52,30.00,10.0,SW,4.6,-,N/A,,Clear,220,2013-05-04 06:53:00
2:53 AM,48.0,32.0,54,29.98,10.0,Calm,Calm,-,N/A,,Clear,0,2013-05-04 07:53:00
3:53 AM,48.0,33.1,56,29.97,10.0,WSW,6.9,-,N/A,,Clear,240,2013-05-04 08:53:00
4:53 AM,46.9,30.9,54,29.96,10.0,Calm,Calm,-,N/A,,Clear,0,2013-05-04 09:53:00
5:53 AM,44.1,33.1,65,29.96,10.0,Calm,Calm,-,N/A,,Clear,0,2013-05-04 10:53:00
6:53 AM,44.1,35.1,71,29.95,10.0,SSW,3.5,-,N/A,,Clear,210,2013-05-04 11:53:00
7:53 AM,50.0,42.1,74,29.96,10.0,Calm,Calm,-,N/A,,Clear,0,2013-05-04 12:53:00
8:53 AM,55.9,37.0,49,29.96,10.0,WSW,4.6,-,N/A,,Clear,250,2013-05-04 13:53:00
9:53 AM,62.1,33.1,34,29.96,10.0,West,5.8,-,N/A,,Clear,280,2013-05-04 14:53:00
10:53 AM,68.0,28.0,22,29.95,10.0,NNW,17.3,-,N/A,,Clear,340,2013-05-04 15:53:00
11:53 AM,70.0,27.0,20,29.95,10.0,NW,21.9,27.6,N/A,,Clear,320,2013-05-04 16:53:00
12:53 PM,70.0,30.0,23,29.94,10.0,NNW,21.9,32.2,N/A,,Clear,340,2013-05-04 17:53:00
1:53 PM,72.0,27.0,19,29.93,10.0,NW,23.0,33.4,N/A,,Clear,320,2013-05-04 18:53:00
2:53 PM,73.0,28.9,20,29.91,10.0,NNW,17.3,28.8,N/A,,Scattered Clouds,330,2013-05-04 19:53:00
3:53 PM,73.9,26.1,17,29.89,10.0,NW,24.2,33.4,N/A,,Scattered Clouds,320,2013-05-04 20:53:00
4:53 PM,73.0,25.0,17,29.88,10.0,NNW,18.4,28.8,N/A,,Scattered Clouds,330,2013-05-04 21:53:00
5:53 PM,72.0,21.9,15,29.89,10.0,NW,18.4,29.9,N/A,,Mostly Cloudy,320,2013-05-04 22:53:00
6:53 PM,70.0,19.9,15,29.89,10.0,NNW,17.3,-,N/A,,Mostly Cloudy,330,2013-05-04 23:53:00
7:53 PM,66.0,19.9,17,29.91,10.0,North,12.7,-,N/A,,Mostly Cloudy,350,2013-05-05 00:53:00
8:53 PM,57.9,36.0,44,29.96,10.0,NE,16.1,-,N/A,,Scattered Clouds,40,2013-05-05 01:53:00
9:53 PM,55.9,35.1,45,29.99,10.0,NNE,10.4,-,N/A,,Scattered Clouds,30,2013-05-05 02:53:00
10:53 PM,54.0,36.0,51,30.01,10.0,NNE,9.2,-,N/A,,Partly Cloudy,20,2013-05-05 03:53:00
11:53 PM,53.1,37.9,57,30.01,10.0,NNE,12.7,-,N/A,,Partly Cloudy,20,2013-05-05 04:53:00